Location: Deerlick Astronomy Village
(33.5614°N, 82.7631°W)
Time: 01:47:06
(UTC-04:00)

Iridium 66 - Visible Passes

Search period start: 23 May 2015 00:00
Search period end: 02 June 2015 00:00
Orbit: 776 x 779 km, 86.4° (Epoch: 22 May)

Date Brightness Start Highest point End Pass type
(mag) Time Alt. Az. Time Alt. Az. Time Alt. Az.
23 May 6.3 21:37:14 10° S 21:42:25 72° W 21:47:39 10° N visible
24 May 6.1 21:03:51 10° SSE 21:08:56 58° E 21:14:04 10° N visible
24 May 8.8 22:47:48 10° WSW 22:50:11 13° WNW 22:52:13 10° NW visible
25 May 8.2 22:12:01 10° SW 22:16:17 25° W 22:20:27 10° NNW visible
26 May 7.1 21:37:33 10° SSW 21:42:34 47° W 21:47:35 10° N visible
27 May 6.1 21:03:48 10° S 21:09:00 87° E 21:14:15 10° N visible
28 May 8.7 22:13:12 10° WSW 22:16:35 17° WNW 22:19:44 10° NW visible
29 May 7.9 21:38:07 10° SW 21:42:46 32° W 21:47:21 10° NNW visible
30 May 6.6 21:03:58 10° SSW 21:09:06 63° W 21:14:17 10° N visible
31 May 9.2 22:15:34 10° W 22:16:57 11° WNW 22:17:57 10° WNW visible
01 Jun 8.6 21:39:00 10° SW 21:43:01 22° W 21:46:53 10° NNW visible
